Content
SEND FEEDBACK

Daily
Averages
Monthly
Summary
United Kingdom

LONDON, ENGLAND


Home > Europe > United Kingdom > England
Elevation: 61 meters     Latitude: 51 09N     Longitude: 000 11W

WEATHER
 
SELECT A DAY
Number of Records: 294,534;   Date Range: 7/1/96 - 9/18/14
 
SHARE

PRINT THIS DATA

[ ← Previous Day ]
WEATHER ALMANAC - 10 FEBRUARY, 2013
[ Next Day → ]
[ °F ]   °C
Weather ElementAverageHighLow
Temperature3.7 °C5 °C (3:20 am)2 °C (4:20 pm)
Dewpoint2.3 °C4 °C (2:20 am)0 °C (4:50 pm)
Humidity91 %100 % (2:20 am)87 % (5:20 am)
Barometer998.3 hPa1010.2 hPa (12:50 am)991.2 hPa (7:20 pm)
Wind Speed15 km/h22.2 km/h (1:20 pm)
Wind Gust35.2 km/h (12:50 pm)
Weather ElementAverage
Visibility7.7 km
Wind DirectionESE (122.6 °)

Weather ElementTotal
Precipitation---
Heating Degree Days14.8 (Base 18.3)
Averaged from 46 records on 10 February, 2013
WEATHER CONDITIONS BREAKOUT
WIND DIRECTION BREAKOUT
WEATHER BY HOUR - 10 FEBRUARY, 2013
[ °F ]   °C
Local TimeTemperatureDewpointHumidityBarometerVisibilityWind DirectionWind SpeedGust SpeedPrecipitationEventsConditions
12:50 AM4 °C3 °C93 %1010.2 hPaSSE (160°)7.4 km/hLight Drizzle
1:20 AM4 °C3 °C93 %1010.2 hPa6 kmVariable5.6 km/hLight Drizzle
1:50 AM4 °C3 °C93 %1009.1 hPa5 kmSouth (170°)9.3 km/hLight Drizzle
2:20 AM4 °C4 °C100 %1009.1 hPa5 kmVariable5.6 km/hLight Drizzle
2:50 AM4 °C4 °C100 %1008.1 hPa5 kmVariable3.7 km/hRainLight Rain
3:20 AM5 °C4 °C93 %1008.1 hPa6 kmSSE (160°)7.4 km/hLight Drizzle
3:50 AM5 °C4 °C93 %1007.1 hPa8 kmSSE (160°)7.4 km/hLight Drizzle
4:20 AM4 °C3 °C93 %1006.1 hPa9 kmSSE (160°)9.3 km/hLight Drizzle
4:50 AM4 °C3 °C93 %1006.1 hPa9 kmSSE (150°)9.3 km/hLight Drizzle
5:20 AM5 °C3 °C87 %1005.1 hPa9 kmSSE (160°)9.3 km/hLight Drizzle
5:50 AM5 °C3 °C87 %1005.1 hPa9 kmSSE (160°)13 km/hLight Drizzle
6:20 AM5 °C4 °C93 %1004.1 hPa9 kmSSE (150°)11.1 km/hLight Drizzle
7:20 AM5 °C4 °C93 %1003 hPa8 kmSSE (150°)13 km/hRainLight Rain
7:50 AM5 °C4 °C93 %1002 hPaSE (140°)13 km/hRainLight Rain
8:20 AM5 °C4 °C93 %1002 hPa6 kmSE (140°)14.8 km/hLight Drizzle
8:50 AM5 °C4 °C93 %1001 hPa8 kmSE (140°)16.7 km/hRainLight Rain
9:20 AM5 °C3 °C87 %1001 hPa10 kmSSE (150°)18.5 km/hRainLight Rain
9:50 AM5 °C3 °C87 %1000 hPa10 kmSSE (150°)16.7 km/hRainLight Rain
10:20 AM5 °C3 °C87 %1000 hPa6 kmSSE (150°)16.7 km/hRainLight Rain
10:50 AM5 °C3 °C87 %999 hPa9 kmSE (140°)18.5 km/hRainLight Rain
11:20 AM5 °C3 °C87 %999 hPa10 kmSE (140°)18.5 km/hRainLight Rain
11:50 AM4 °C3 °C93 %998 hPa10 kmSE (140°)18.5 km/hRainLight Rain
12:20 PM4 °C3 °C93 %997 hPa10 kmSE (140°)18.5 km/hRainLight Rain
12:50 PM4 °C3 °C93 %996.3 hPa10 kmSE (130°)16.7 km/h35.2 km/hRainLight Rain
1:20 PM4 °C2 °C87 %996.3 hPa10 kmSE (140°)22.2 km/hRainLight Rain
1:50 PM4 °C2 °C87 %995.3 hPa10 kmSE (130°)18.5 km/hRainLight Rain
2:20 PM4 °C2 °C87 %995.3 hPa10 kmSE (130°)20.4 km/hRainLight Rain
2:50 PM4 °C2 °C87 %994.2 hPa10 kmESE (120°)18.5 km/hRainRain
3:20 PM3 °C2 °C93 %993.2 hPa5 kmESE (120°)20.4 km/hRainRain
3:50 PM3 °C1 °C87 %993.2 hPa5 kmSE (130°)22.2 km/hRain-SnowRain
4:20 PM2 °C1 °C93 %993.2 hPa4.5 kmESE (120°)18.5 km/hRain-SnowLight Rain
4:50 PM2 °C0 °C87 %992.2 hPa5 kmESE (110°)18.5 km/hRainLight Rain
5:20 PM2 °C1 °C93 %992.2 hPa8 kmESE (110°)16.7 km/hRainLight Rain
5:50 PM2 °C1 °C93 %992.2 hPa6.9 kmESE (110°)16.7 km/hRainLight Rain
6:20 PM2 °C1 °C93 %992.2 hPa8 kmESE (120°)14.8 km/hRainLight Rain
6:50 PM3 °C1 °C87 %992.2 hPa8 kmESE (120°)14.8 km/hRainLight Rain
7:20 PM3 °C1 °C87 %991.2 hPa8 kmESE (120°)18.5 km/hRainLight Rain
7:50 PM2 °C1 °C93 %991.2 hPa5 kmESE (110°)16.7 km/hRainLight Rain
8:20 PM3 °C2 °C93 %991.2 hPa6.9 kmESE (120°)16.7 km/hLight Drizzle
8:50 PM3 °C1 °C87 %991.2 hPa8 kmESE (120°)18.5 km/hLight Drizzle
9:20 PM3 °C1 °C87 %991.2 hPa8 kmESE (110°)18.5 km/hRainLight Rain
9:50 PM2 °C1 °C93 %991.2 hPa8 kmEast (100°)18.5 km/hRainLight Rain
10:20 PM2 °C1 °C93 %991.2 hPa6.9 kmEast (90°)18.5 km/hRain-SnowLight Rain
10:50 PM2 °C0 °C87 %991.2 hPa6 kmEast (90°)13 km/hRainLight Rain
11:20 PM2 °C1 °C93 %991.2 hPa8 kmEast (90°)14.8 km/hRainLight Rain
11:50 PM2 °C1 °C93 %991.2 hPa6 kmEast (90°)14.8 km/hRainLight Rain
Hourly data recorded from EGKK, located 0 kilometers away from London, England







STORIES FROM OUR PARTNERS